Garrison, ND

8:13 AM CST on February 25, 2017 (GMT -0600)
Garrison

Weather History for KN60 - October, 2012

Change the Weather History Date:

Sunday, October 14, 2012

  Actual Average Record
Temperature  
Mean Temperature 48 °F -  
Max Temperature 65 °F - 68 °F (2010)
Min Temperature 31 °F - 19 °F (2006)
Degree Days  
Heating Degree Days 17    
Month to date heating degree days 315  
Cooling Degree Days 0    
Month to date cooling degree days 0  
Year to date cooling degree days 458  
Moisture  
Dew Point 36 °F    
Average Humidity 67    
Maximum Humidity 96    
Minimum Humidity 37    
Precipitation  
Precipitation 0.00 in - 1.12 in (2013)
Month to date precipitation 1.38  
Year to date precipitation 14.52  
Sea Level Pressure  
Sea Level Pressure 29.96 in    
Wind  
Wind Speed 5 mph (NW)    
Max Wind Speed 14 mph    
Max Gust Speed 22 mph    
T = Trace of Precipitation, MM = Missing Value Source: NWS Daily Summary

Daily Weather History Graph

Daily Weather History Graph

Search for Another Location

Airport or City:

Trip Planner

Search our weather history database for the weather conditions in past years. The results will help you decide how hot, cold, wet, or windy it might be!

Date:

Astronomy

Oct. 14, 2012 Rise Set
Actual Time 8:03 AM CDT 6:58 PM CDT
Civil Twilight 7:32 AM CDT 7:29 PM CDT
Nautical Twilight 6:57 AM CDT 8:05 PM CDT
Astronomical Twilight 6:21 AM CDT 8:40 PM CDT
Moon 7:04 AM CDT (10/14) 6:18 PM CDT (10/14)
Length of Visible Light 11h 56m
Length of Day
10h 54m
Waning Crescent, 1% of the Moon is Illuminated
Oct 14
Waning Crescent
Oct 15
New
Oct 21
First Quarter
Oct 29
Full
Nov 6
Last Quarter

Hourly Weather History & Observations

Time (CDT) Temp. Windchill Dew Point Humidity Pressure Visibility Wind Dir Wind Speed Gust Speed Precip Events Conditions
12:52 AM 36.0 °F 28.5 °F 32.0 °F 86% 29.96 in - NW 10.4 mph - N/A   Unknown
1:52 AM 36.0 °F 30.3 °F 32.0 °F 86% 29.95 in - NNW 6.9 mph - N/A   Unknown
2:52 AM 33.1 °F 26.9 °F 30.0 °F 89% 29.96 in - NNW 6.9 mph - N/A   Unknown
3:52 AM 32.0 °F 25.6 °F 30.0 °F 92% 29.96 in - NNW 6.9 mph - N/A   Unknown
4:52 AM 34.0 °F - 32.0 °F 92% 29.99 in - Calm Calm - N/A   Unknown
5:52 AM 33.1 °F - 30.0 °F 89% 29.99 in - Calm Calm - N/A   Unknown
6:52 AM 34.0 °F 29.8 °F 32.0 °F 92% 30.00 in - North 4.6 mph - N/A   Unknown
7:52 AM 36.0 °F 32.1 °F 33.1 °F 89% 30.01 in - West 4.6 mph - N/A   Unknown
8:52 AM 37.0 °F 34.5 °F 34.0 °F 89% 30.02 in - Variable 3.5 mph - N/A   Unknown
9:52 AM 42.1 °F - 36.0 °F 79% 30.01 in - Calm Calm - N/A   Unknown
10:52 AM 48.9 °F - 39.9 °F 71% 30.01 in - Variable 4.6 mph - N/A   Unknown
11:52 AM 55.0 °F - 39.9 °F 57% 29.99 in - West 4.6 mph - N/A   Unknown
12:52 PM 57.9 °F - 39.9 °F 51% 29.97 in - Variable 5.8 mph - N/A   Unknown
1:52 PM 61.0 °F - 39.9 °F 46% 29.95 in - NW 10.4 mph - N/A   Unknown
2:52 PM 62.1 °F - 39.0 °F 43% 29.93 in - Variable 4.6 mph - N/A   Unknown
3:52 PM 64.0 °F - 37.9 °F 38% 29.92 in - Variable 5.8 mph - N/A   Unknown
4:52 PM 64.9 °F - 39.0 °F 39% 29.90 in - South 6.9 mph - N/A   Unknown
5:52 PM 64.0 °F - 39.0 °F 40% 29.91 in - WNW 9.2 mph 21.9 mph N/A   Unknown
6:52 PM 57.0 °F - 37.9 °F 49% 29.92 in - WNW 3.5 mph - N/A   Unknown
7:52 PM 51.1 °F - 37.0 °F 59% 29.92 in - WNW 5.8 mph - N/A   Unknown
8:52 PM 48.0 °F - 37.0 °F 66% 29.94 in - Calm Calm - N/A   Unknown
9:52 PM 46.0 °F - 36.0 °F 68% 29.93 in - Calm Calm - N/A   Unknown
10:52 PM 45.0 °F - 39.0 °F 80% 29.90 in - Calm Calm - N/A   Unknown
11:52 PM 44.1 °F - 39.9 °F 85% 29.88 in - Calm Calm - N/A   Unknown